Вернуться в каталог

STARLINK-5069

АктивенСвязьVLEO
NORAD 55640·PAYLOAD·🇺🇸 United States

Запущен Feb 17, 2023 с Vandenberg Space Force Base

Loading…

Ближайшие Пролёты (ближайшие 24 часа)

TLE

СвежийSource: CelesTrak SupGP

Эпоха: Sep 15, 2026, 01:47 UTC

1 55640C 23021N   26258.07479167 -.00049937  00000+0 -41849-2 0  2581
2 55640  70.0011  66.9081 0002859 269.8157 335.2626 14.98357068    12

Отслеживайте STARLINK-5069 в реальном времени с AllMySat

Download on the App Store